Time,TemperatureF,DewpointF,PressureIn,WindDirection,WindDirectionDegrees,WindSpeedMPH,WindSpeedGustMPH,Humidity,HourlyPrecipIn,Conditions,Clouds,dailyrainin,SoftwareType,DateUTC
2013-01-27 01:32:00,48.0,-99.9,-100.00,SSW,193,5.0,7.0,-999,-99.99,,,-99.99,,2013-01-27 09:32:00,
2013-01-27 01:42:00,48.0,-99.9,-100.00,SSW,193,5.0,7.0,-999,-99.99,,,-99.99,,2013-01-27 09:42:00,
2013-01-27 01:52:00,48.0,-99.9,-100.00,SSW,193,5.0,7.0,-999,-99.99,,,-99.99,,2013-01-27 09:52:00,
2013-01-27 03:32:00,48.0,-99.9,-100.00,SW,224,8.0,9.0,-999,-99.99,,,-99.99,,2013-01-27 11:32:00,
2013-01-27 03:42:00,48.0,-99.9,-100.00,SW,224,8.0,9.0,-999,-99.99,,,-99.99,,2013-01-27 11:42:00,
2013-01-27 03:52:00,48.0,-99.9,-100.00,SW,224,8.0,9.0,-999,-99.99,,,-99.99,,2013-01-27 11:52:00,
2013-01-27 05:32:00,41.0,-99.9,-100.00,SW,215,9.0,12.0,-999,-99.99,,,-99.99,,2013-01-27 13:32:00,
2013-01-27 05:42:00,41.0,-99.9,-100.00,SW,215,9.0,12.0,-999,-99.99,,,-99.99,,2013-01-27 13:42:00,
2013-01-27 05:52:00,41.0,-99.9,-100.00,SW,215,9.0,12.0,-999,-99.99,,,-99.99,,2013-01-27 13:52:00,
2013-01-27 07:33:00,39.0,-99.9,-100.00,SW,216,5.0,7.0,-999,-99.99,,,-99.99,,2013-01-27 15:33:00,
2013-01-27 07:43:00,39.0,-99.9,-100.00,SW,216,5.0,7.0,-999,-99.99,,,-99.99,,2013-01-27 15:43:00,
2013-01-27 07:53:00,39.0,-99.9,-100.00,SW,216,5.0,7.0,-999,-99.99,,,-99.99,,2013-01-27 15:53:00,
2013-01-27 09:33:00,39.0,-99.9,-100.00,SSW,210,3.0,6.0,-999,-99.99,,,-99.99,,2013-01-27 17:33:00,
2013-01-27 09:42:00,39.0,-99.9,-100.00,SSW,210,3.0,6.0,-999,-99.99,,,-99.99,,2013-01-27 17:42:00,
2013-01-27 09:53:00,39.0,-99.9,-100.00,SSW,210,3.0,6.0,-999,-99.99,,,-99.99,,2013-01-27 17:53:00,
2013-01-27 11:33:00,40.0,-99.9,-100.00,West,266,2.0,5.0,-999,-99.99,,,-99.99,,2013-01-27 19:33:00,
2013-01-27 11:42:00,40.0,-99.9,-100.00,West,266,2.0,5.0,-999,-99.99,,,-99.99,,2013-01-27 19:42:00,
2013-01-27 11:52:00,40.0,-99.9,-100.00,West,266,2.0,5.0,-999,-99.99,,,-99.99,,2013-01-27 19:52:00,
2013-01-27 13:33:00,41.0,-99.9,-100.00,South,177,6.0,10.0,-999,-99.99,,,-99.99,,2013-01-27 21:33:00,
2013-01-27 13:43:00,41.0,-99.9,-100.00,South,177,6.0,10.0,-999,-99.99,,,-99.99,,2013-01-27 21:43:00,
2013-01-27 13:52:00,41.0,-99.9,-100.00,South,177,6.0,10.0,-999,-99.99,,,-99.99,,2013-01-27 21:52:00,
2013-01-27 15:32:00,41.0,-99.9,-100.00,SSW,208,6.0,14.0,-999,-99.99,,,-99.99,,2013-01-27 23:32:00,
2013-01-27 15:42:00,41.0,-99.9,-100.00,SSW,208,6.0,14.0,-999,-99.99,,,-99.99,,2013-01-27 23:42:00,
2013-01-27 15:53:00,41.0,-99.9,-100.00,SSW,208,6.0,14.0,-999,-99.99,,,-99.99,,2013-01-27 23:53:00,
2013-01-27 17:33:00,38.0,-99.9,-100.00,SW,230,5.0,8.0,-999,-99.99,,,-99.99,,2013-01-28 01:33:00,
2013-01-27 17:43:00,38.0,-99.9,-100.00,SW,230,5.0,8.0,-999,-99.99,,,-99.99,,2013-01-28 01:43:00,
2013-01-27 17:52:00,38.0,-99.9,-100.00,SW,230,5.0,8.0,-999,-99.99,,,-99.99,,2013-01-28 01:52:00,
2013-01-27 19:32:00,39.0,-99.9,-100.00,South,181,4.0,7.0,-999,-99.99,,,-99.99,,2013-01-28 03:32:00,
2013-01-27 19:42:00,39.0,-99.9,-100.00,South,181,4.0,7.0,-999,-99.99,,,-99.99,,2013-01-28 03:42:00,
2013-01-27 19:53:00,39.0,-99.9,-100.00,South,181,4.0,7.0,-999,-99.99,,,-99.99,,2013-01-28 03:53:00,
2013-01-27 21:32:00,40.0,-99.9,-100.00,SW,227,1.0,4.0,-999,-99.99,,,-99.99,,2013-01-28 05:32:00,
2013-01-27 21:42:00,40.0,-99.9,-100.00,SW,227,1.0,4.0,-999,-99.99,,,-99.99,,2013-01-28 05:42:00,
2013-01-27 21:52:00,40.0,-99.9,-100.00,SW,227,1.0,4.0,-999,-99.99,,,-99.99,,2013-01-28 05:52:00,
2013-01-27 23:32:00,38.0,-99.9,-100.00,SW,226,4.0,6.0,-999,-99.99,,,-99.99,,2013-01-28 07:32:00,
2013-01-27 23:42:00,38.0,-99.9,-100.00,SW,226,4.0,6.0,-999,-99.99,,,-99.99,,2013-01-28 07:42:00,
2013-01-27 23:52:00,38.0,-99.9,-100.00,SW,226,4.0,6.0,-999,-99.99,,,-99.99,,2013-01-28 07:52:00,